EHI
0 0 0 0 0 0 0 0 0 0 0 0 0 0 0 0 0 0 0 0 2 6 10 17 23 27 25 20 16 11 5 2 2 2 2 1 0 0 0 0 0 0 0 0
0 0 0 0 0 0 0 0 0 0 0 0 0 0 0 0 0 0 0 0 1 4 9 16 23 28 28 24 19 12 5 1 1 1 1 0 0 0 0 0 0 0 0 0
0 0 0 0 0 0 0 0 0 0 1 1 1 0 0 0 0 0 0 0 0 2 7 13 21 30 32 28 21 12 3 0 0 0 0 0 0 0 0 0 0 0 0 0
0 0 0 0 0 0 0 0 1 1 1 2 1 0 0 0 0 0 0 0 0 1 4 10 18 27 30 26 19 9 2 0 0 0 0 0 0 0 0 0 0 0 0 0
0 0 0 0 0 0 0 0 1 1 1 1 1 0 0 0 0 0 0 1 1 1 5 14 23 27 26 21 14 7 2 0 0 0 0 0 0 0 0 0 0 0 0 0
0 0 0 0 0 0 0 0 1 1 0 0 0 0 0 0 0 0 0 3 5 7 16 31 42 41 30 17 10 5 2 0 0 0 0 0 0 0 0 0 0 0 0 0
0 0 0 0 0 0 0 0 0 0 0 0 0 0 0 0 0 0 0 2 7 15 32 53 65 61 41 21 10 5 2 1 0 0 0 0 0 0 0 0 0 0 0 0
0 0 0 0 0 0 0 0 0 0 0 0 0 0 0 0 0 0 0 1 5 15 37 63 76 70 50 28 14 6 3 2 1 0 0 0 0 1 0 0 0 0 0 0
0 0 0 0 0 0 0 0 0 0 0 0 0 0 0 0 0 0 0 0 1 8 28 54 69 66 52 35 19 8 4 2 1 0 0 0 0 0 0 0 0 0 0 0
0 0 0 0 0 0 0 0 0 0 0 0 0 0 0 0 0 0 0 0 0 3 17 36 51 53 47 35 21 10 4 2 1 0 0 0 0 0 0 0 0 0 0 0
0 0 0 0 0 0 0 0 0 0 0 0 0 0 0 0 0 0 0 0 0 1 7 18 29 37 38 31 20 9 4 1 0 0 0 0 0 0 0 0 0 0 0 0
0 0 0 0 0 0 0 0 0 0 0 0 0 0 0 0 0 0 0 0 0 0 2 6 13 21 27 25 17 8 2 0 0 0 0 0 0 0 0 0 0 0 0 0
0 0 0 0 0 0 0 0 0 0 0 0 0 0 0 0 0 0 0 0 0 0 0 1 3 9 16 17 12 6 1 0 0 0 0 0 0 0 0 0 0 0 0 0
0 0 0 0 0 0 0 0 0 0 0 0 0 0 0 0 0 0 0 0 0 0 0 0 0 3 7 8 5 3 1 0 0 0 0 0 0 0 0 0 0 0 0 0
0 0 0 0 0 0 0 0 0 0 0 0 0 0 0 0 0 0 0 0 0 0 0 0 0 1 2 2 1 1 0 0 0 0 0 0 0 0 0 0 0 0 0 0
0 0 0 0 0 0 0 0 0 0 0 0 0 0 0 0 0 0 0 0 0 0 0 0 0 0 0 0 0 0 0 0 0 0 0 0 0 0 0 0 0 0 0 0
0 0 0 0 0 0 0 0 0 0 0 0 0 0 0 0 0 0 0 0 0 0 0 0 0 0 0 0 0 0 0 0 0 0 0 0 0 0 0 0 0 0 0 0
0 0 0 0 0 0 0 0 0 0 0 0 0 0 0 0 0 0 0 0 0 0 0 0 0 0 0 0 0 0 0 0 0 0 0 0 0 0 0 0 0 0 0 0
0 0 0 0 0 0 0 0 0 0 0 0 0 0 0 0 0 0 0 0 0 0 0 0 0 0 0 0 0 0 0 0 0 0 0 0 0 0 0 0 0 0 0 0
0 0 0 0 0 0 0 0 0 0 0 0 0 0 0 0 0 0 0 0 0 0 0 0 0 0 0 0 0 0 0 0 0 0 0 0 0 0 0 0 0 0 0 0
0 0 0 0 0 0 0 0 0 0 0 0 0 0 0 0 0 0 0 0 0 0 0 0 0 0 0 0 0 0 0 0 0 0 0 0 0 0 0 0 0 0 0 0
0 0 0 0 0 0 0 0 0 0 0 0 0 0 0 0 0 0 0 0 0 0 0 0 0 0 0 0 0 0 0 0 0 0 0 0 0 0 0 0 0 0 0 0
0 0 0 0 0 0 0 0 0 0 0 0 0 0 0 0 0 0 0 0 0 0 0 0 0 0 0 0 0 0 0 0 0 0 0 0 0 0 0 0 0 0 0 0
0 0 0 0 0 0 0 0 0 0 0 0 0 0 0 0 0 0 0 0 0 0 0 0 0 0 0 0 0 0 0 0 0 0 0 0 0 0 0 0 0 0 0 0
0 0 0 0 0 0 0 0 0 0 0 0 0 0 0 0 0 0 0 0 0 0 0 0 0 0 0 0 0 0 0 0 0 0 0 0 0 0 0 0 0 0 0 0
0 0 0 0 0 0 0 0 0 0 0 0 0 0 0 0 0 0 0 0 0 0 0 0 0 0 0 0 0 0 0 0 0 0 0 0 0 0 0 0 0 0 0 0
0 0 0 0 0 0 0 0 0 0 0 0 0 0 0 0 0 0 0 0 0 0 0 0 0 0 0 0 0 0 0 0 0 0 0 0 0 0 0 0 0 0 0 0
Wind_Speed
15 18 19 20 19 18 17 16 17 18 18 16 12 11 10 8 8 9 8 7 5 3 2 3 3 3 4 4 2 2 2 2 2 3 3 3 3 3 2 2 2 1 1 1
17 19 19 20 19 18 15 13 14 14 14 14 14 13 11 10 11 11 9 9 6 4 3 3 4 4 4 4 3 3 3 3 3 5 5 4 4 3 2 2 1 0 0 2
16 18 18 15 11 8 8 10 13 14 15 17 16 16 14 12 12 12 10 9 6 4 3 3 4 4 4 4 4 4 4 5 5 6 6 6 6 5 3 2 2 1 2 5
12 15 14 8 11 10 8 12 17 17 18 19 19 18 15 13 13 13 12 10 7 4 3 3 4 4 5 5 5 5 6 6 6 7 7 7 6 6 5 3 3 2 4 6
9 13 13 8 14 12 8 8 19 19 19 21 22 20 15 17 19 15 13 10 7 5 5 4 5 5 6 6 6 6 7 7 7 8 8 8 8 6 5 4 4 4 5 6
10 14 13 9 16 15 10 2 20 21 20 21 22 16 15 21 22 19 15 11 8 7 6 5 5 5 6 7 7 7 7 6 7 8 9 9 8 7 5 5 5 5 6 6
11 13 5 13 15 14 7 11 20 21 21 20 18 17 20 23 21 20 17 14 10 8 7 6 6 7 8 8 7 6 6 6 7 7 8 9 8 7 7 6 6 6 7 6
8 9 4 18 13 11 10 14 16 18 19 20 20 21 21 22 22 21 20 17 13 9 7 6 8 8 9 8 7 6 6 6 7 8 9 9 9 8 7 7 7 6 6 6
6 7 9 14 11 9 10 13 14 16 18 19 20 21 22 21 21 21 21 19 15 14 9 7 8 10 11 9 7 7 6 7 7 8 7 8 10 10 9 7 7 8 7 7
4 10 7 10 11 11 11 13 15 17 18 19 19 21 21 19 18 18 19 19 17 16 14 9 7 10 11 9 8 8 7 7 7 7 7 9 8 8 8 9 8 8 8 8
6 9 10 11 14 14 15 16 17 18 19 19 20 20 20 18 17 16 16 16 16 16 15 13 10 10 11 10 9 9 8 8 8 8 8 8 8 6 8 6 7 8 7 8
5 6 8 11 13 15 17 18 19 20 21 21 20 20 20 18 16 15 15 15 15 16 16 16 13 11 10 10 10 9 9 8 8 8 7 7 8 6 5 4 6 7 6 7
5 7 10 14 17 18 19 21 22 21 21 21 20 19 19 18 16 16 16 16 16 16 17 16 15 13 10 10 10 11 9 8 8 8 9 8 9 10 8 5 6 7 8 11
9 12 14 16 18 20 21 23 23 22 22 21 20 19 18 18 17 17 17 16 16 16 15 15 16 13 11 10 9 11 11 11 9 8 9 9 9 10 10 11 9 6 5 11
11 13 17 20 21 21 21 22 23 22 22 21 20 19 19 18 18 17 17 16 15 15 16 14 14 14 12 11 10 12 12 10 10 9 9 9 10 10 10 12 11 10 9 6
16 17 19 20 22 22 23 23 22 22 22 21 20 20 20 19 18 18 17 15 14 15 15 14 14 13 12 12 10 10 10 13 11 10 9 9 9 9 9 10 10 10 11 11
18 19 21 22 22 23 23 23 22 22 22 22 22 21 21 21 19 18 17 16 14 14 13 12 12 13 12 11 10 9 11 12 13 11 9 8 8 8 8 9 10 10 11 14
18 20 21 22 22 22 22 22 21 22 21 22 23 22 21 21 20 20 19 17 16 15 13 11 10 11 12 12 9 8 10 12 12 11 9 8 8 8 8 9 11 12 10 13
20 21 22 22 22 21 21 21 21 21 20 20 21 21 21 21 21 20 19 18 17 16 12 10 8 10 11 13 11 7 9 11 12 11 10 9 9 9 9 9 9 10 11 13
21 21 22 23 22 22 21 21 21 19 18 19 20 21 21 21 20 20 19 17 14 12 10 8 8 8 9 10 11 7 9 9 11 12 11 9 9 9 9 10 9 10 10 13
22 23 23 23 22 22 21 20 19 19 18 18 19 20 21 21 20 18 17 16 14 12 10 8 6 6 5 7 8 7 8 7 8 10 11 10 9 9 9 9 9 8 8 11
22 22 23 23 22 21 19 18 17 18 18 18 19 20 20 20 19 18 18 14 14 11 9 7 6 5 4 7 5 6 7 7 6 7 8 9 9 9 9 9 8 8 8 8
21 21 22 22 21 21 21 18 17 16 17 18 19 19 18 17 14 14 14 12 11 10 8 7 6 6 5 5 4 6 7 6 5 5 7 9 9 8 9 10 8 7 7 8
21 21 21 21 21 20 20 19 17 15 17 17 16 17 17 14 13 12 13 13 13 12 9 7 8 8 6 4 4 5 6 6 5 4 5 7 9 8 8 8 8 7 7 9
20 20 21 20 19 16 17 17 18 18 17 14 17 18 15 12 13 13 12 14 12 11 10 9 11 10 7 5 5 5 6 5 5 5 6 5 7 7 7 8 8 7 7 7
18 16 16 16 15 13 14 14 14 15 14 15 15 14 14 12 13 12 10 12 14 11 10 7 7 8 7 6 6 6 6 6 7 8 7 6 6 6 6 8 9 8 7 7
18 16 13 15 15 15 14 14 15 16 15 15 17 17 15 13 11 11 11 10 9 8 8 8 7 7 7 7 6 6 6 6 7 7 7 7 6 5 6 7 6 6 6 7
Wind_Direction
290 298 299 297 294 291 287 286 288 294 299 310 324 329 330 326 317 308 304 300 290 259 228 238 250 250 246 247 237 241 243 224 176 156 147 134 120 115 107 88 81 51 52 63
288 288 291 290 286 284 286 294 303 313 323 346 348 344 337 332 323 312 302 295 294 290 261 241 242 248 240 232 223 219 223 219 182 164 162 157 154 151 146 145 151 207 218 103
291 298 297 289 298 308 318 336 346 346 351 354 351 350 344 336 323 315 310 304 298 288 264 234 232 230 228 226 218 213 224 214 191 184 179 177 173 165 168 168 168 181 122 101
284 288 283 301 356 351 350 29 20 11 4 359 353 345 334 341 351 340 330 316 308 292 270 241 225 217 215 222 220 218 222 216 197 192 186 180 179 179 180 176 172 163 121 110
284 286 290 338 20 7 350 39 26 7 357 350 343 334 331 349 348 336 324 314 301 274 258 235 219 218 217 223 226 227 226 215 198 191 186 182 186 182 179 173 168 157 134 126
276 291 298 4 4 347 312 297 18 359 352 347 345 335 330 335 329 323 316 306 288 262 244 224 209 208 218 227 230 231 227 212 196 189 186 184 183 178 176 172 169 162 147 141
262 268 283 18 10 357 350 346 351 350 347 345 339 327 323 326 326 323 319 311 298 271 236 216 204 202 215 226 231 231 220 203 189 185 184 180 177 175 172 174 173 170 152 152
297 293 8 18 34 36 355 342 345 344 342 337 330 327 327 327 327 325 325 321 315 301 270 222 200 202 213 220 222 221 210 199 189 184 187 177 171 173 174 175 170 167 158 158
18 60 74 48 45 21 355 343 339 334 332 329 325 324 324 325 326 327 327 326 325 315 292 254 212 205 213 212 208 209 203 197 191 191 190 169 171 175 175 177 177 172 172 172
56 68 54 49 19 2 349 336 328 326 323 321 318 318 318 319 320 323 325 328 327 323 316 297 250 220 210 203 198 201 199 193 186 186 184 174 176 178 180 182 184 182 182 182
20 12 346 358 352 340 332 326 321 317 313 312 312 312 314 314 315 318 319 322 321 320 314 310 295 252 216 201 196 198 196 191 188 188 186 179 180 178 188 187 193 188 188 182
0 345 314 310 314 312 307 304 303 304 305 307 308 308 308 307 308 309 311 315 317 317 315 314 309 285 240 204 194 193 196 193 191 188 184 181 171 151 68 125 139 148 161 165
277 284 282 284 288 289 290 294 298 300 301 302 302 301 302 302 302 303 305 308 312 314 312 311 308 298 275 224 199 193 195 190 192 190 183 182 178 169 156 109 86 106 130 135
270 276 282 286 291 294 296 298 299 299 299 300 301 301 301 302 304 305 304 303 304 307 306 311 306 301 295 255 213 196 196 194 192 192 185 184 184 183 177 173 168 153 116 132
283 280 284 290 294 298 302 304 305 306 307 307 307 305 303 301 300 300 299 297 298 300 304 306 309 303 303 277 231 205 198 197 193 193 189 188 186 187 186 184 181 173 150 136
298 298 300 305 309 312 313 313 313 313 314 312 310 309 306 302 298 298 298 297 294 295 298 302 303 303 308 298 256 213 201 201 188 191 194 191 189 188 186 181 182 176 170 164
312 316 318 317 317 318 320 320 318 316 316 314 312 310 307 304 301 300 298 297 291 286 286 290 299 310 309 300 273 225 203 196 190 194 198 193 188 190 186 182 184 182 177 171
319 319 319 319 319 319 319 319 318 318 316 316 315 313 310 306 304 302 299 297 294 288 283 281 292 308 313 302 281 245 212 191 189 197 197 194 186 189 193 189 188 186 178 168
324 322 321 319 318 316 317 318 318 318 317 317 315 312 308 304 302 301 299 296 294 289 286 283 288 300 307 306 295 262 228 199 182 191 198 191 189 192 196 197 192 187 176 166
322 321 321 320 319 319 317 317 317 315 317 317 313 310 307 304 302 300 298 294 287 283 280 275 272 285 302 304 303 269 238 212 183 183 194 197 195 195 195 199 196 192 178 168
321 321 320 318 317 316 315 316 315 314 315 315 313 309 306 302 299 297 294 292 289 285 277 258 252 267 292 303 299 279 255 227 189 181 188 195 194 197 200 198 196 194 185 173
320 318 317 316 315 314 314 313 312 314 316 314 312 309 305 302 299 295 288 285 285 278 266 254 245 245 269 302 290 274 262 241 204 181 186 193 192 192 199 202 199 195 192 183
315 314 315 315 315 314 313 313 316 317 314 312 310 307 303 298 296 291 288 286 286 280 268 257 236 232 258 274 271 266 259 248 223 195 187 190 195 193 194 202 201 195 192 191
314 316 317 316 317 316 316 318 319 316 313 311 307 304 301 298 293 284 280 281 277 274 270 254 223 223 237 246 255 262 255 242 228 218 209 198 196 191 189 196 200 197 196 199
318 319 318 321 320 320 320 321 322 320 317 312 308 307 302 294 290 288 284 282 278 266 263 243 218 217 226 237 239 246 248 239 232 228 224 210 199 189 185 191 196 198 198 201
321 318 323 320 321 321 324 325 322 317 315 312 310 310 306 299 293 289 280 273 268 255 253 245 219 213 225 232 235 237 238 233 227 224 221 210 205 196 190 192 195 198 198 198
324 326 324 324 325 326 326 324 318 315 314 312 312 311 307 302 296 290 283 274 266 251 243 236 224 213 220 226 227 233 235 233 231 225 213 200 197 191 186 184 189 193 198 196